Notices

What's New in latest Release from April 7th, 2021:

- Updated Glossary, including Speed of Maximum Gust, and Total Hourly Precipitation

- Updated national and regional climate services offices contacts and prices information

- Addition of station inventory lists for 1981-2010, 1971-2000, and 1961-1990 Normals.

If you haven't already, please take our survey and provide feedback about our website: https://eccc.sondage-survey.ca/f/LanguageSelection.aspx?s=442ca660-fcf1-47c0-95a9-59707d6fd709

Hourly Data Report for August 24, 2020

TORONTO CITY
ONTARIO
Current Station Operator: ECCC - MSC

43°40'00.000" N
79°24'00.000" W
112.50 m
6158355
71508
XTO

Download Data

Hourly Data (August 2020)
Hourly Data Report for August 24, 2020
TIME
LST
Temp Definition
°C
Dew Point Definition
°C
Rel Hum Definition
%
Precip. Amount Definition
mm

Wind Dir Definition
10's deg

Wind Spd Definition
km/h
Visibility Definition
km
Stn Press Definition
kPa
Hmdx Definition


Wind Chill Definition


Weather Definition


00:00 23.0 17.5 71 0.0       100.20 29   LegendNANA
01:00 22.3 17.4 74 0.0       100.18 28   LegendNANA
02:00 22.3 17.7 75 0.0       100.16 28   LegendNANA
03:00 21.9 17.3 75 0.0       100.15 27   LegendNANA
04:00 21.8 18.2 80 0.0       100.13 28   LegendNANA
05:00 21.9 18.1 79 0.0       100.12 28   LegendNANA
06:00 22.3 18.4 79 0.0       100.13 29   LegendNANA
07:00 23.0 18.6 76 0.0       100.13 29   LegendNANA
08:00 24.3 18.6 71 0.0       100.18 31   LegendNANA
09:00 25.8 19.2 67 0.0       100.21 33   LegendNANA
10:00 27.1 18.8 60 0.0       100.19 34   LegendNANA
11:00 28.0 19.1 59 0.0       100.20 35   LegendNANA
12:00 29.7 16.8 46 0.2       100.10 35   LegendNANA
13:00 31.1 17.9 45 0.0       100.02 37   LegendNANA
14:00 30.6 16.7 43 0.2       99.94 36   LegendNANA
15:00 32.4 12.6 30 0.0       99.86 35   LegendNANA
16:00 32.1 12.5 30 0.0       99.82 35   LegendNANA
17:00 31.5 13.6 34 0.0       99.79 35   LegendNANA
18:00 30.5 14.6 38 0.0       99.75 34   LegendNANA
19:00 29.8 15.7 42 0.0       99.77 34   LegendNANA
20:00 28.9 16.5 47 0.0       99.82 34   LegendNANA
21:00 27.6 18.2 57 0.0       99.83 34   LegendNANA
22:00 26.3 18.3 61 0.0       99.84 33   LegendNANA
23:00 25.9 19.1 66 0.0       99.72 33   LegendNANA

Notes on Data Quality.

Legend

  • E = Estimated
  • M = Missing
  • NA = Not Available*
  • [empty] = Indicates an unobserved value
Date modified: